Regional Weather Roundup
Issued by NWS

Home | Current Version | Previous Version | Graphics & Text | Print | Product List | Glossary On
Versions: 1 2 3 4 5 6 7 8 9 10 11 12 13 14 15 16 17 18 19 20 21 22 23 24 25 26 27 28 29 30 31 32 33 34 35 36 37 38 39 40 41 42 43 44 45 46 47 48 49 50
000
ASUS43 KFSD 221102
RWRSD

WEATHER ROUNDUP FOR SOUTH DAKOTA
NATIONAL WEATHER SERVICE SIOUX FALLS SD
600 AM CDT SAT JUL 22 2017

NOTE: "FAIR" INDICATES FEW OR NO CLOUDS BELOW 12,000 FEET WITH NO
SIGNIFICANT WEATHER AND/OR OBSTRUCTIONS TO VISIBILITY.


SDZ001>005-009-010-012>017-221200-
NORTHWEST AND NORTH CENTRAL SOUTH DAKOTA

CITY           SKY/WX    TMP DP  RH WIND       PRES   REMARKS
BUFFALO          N/A     65  40  39 N5        29.97R
FAITH            N/A     59  46  62 W7        29.98R
MOBRIDGE       CLEAR     68  66  93 NW10      29.88R
$$

SDZ012>016-024>037-041>051-057-063-072>074-221200-
SOUTHWEST AND SOUTH CENTRAL SOUTH DAKOTA

CITY           SKY/WX    TMP DP  RH WIND       PRES   REMARKS
RAPID CTY ARPT PTCLDY    62  43  49 SW5       30.03R
PIERRE         CLEAR     67  65  93 W9        29.88R
CUSTER         CLOUDY    60  40  47 CALM      30.17S
ELLSWORTH AFB  PTCLDY    67  42  40 CALM      30.01R
PHILIP         CLEAR     67  45  45 W14       29.93S
PINE RIDGE     CLOUDY    64  61  90 CALM      30.04R
SPEARFISH      FAIR      59  41  51 W6        30.08S
WINNER         FAIR      69  65  86 CALM      29.89F
$$

SDZ004>011-016>023-039-040-221200-
NORTHEAST SOUTH DAKOTA

CITY           SKY/WX    TMP DP  RH WIND       PRES   REMARKS
ABERDEEN       PTCLDY    66  66 100 CALM      29.86R
WATERTOWN      CLEAR     68  67  96 NW7       29.85R
BROOKINGS      CLEAR     65  63  93 W6        29.85R
SISSETON         N/A     69  66  90 NE13      29.86R
$$

SDZ017-020-022-023-036>040-048>070-221200-
SOUTHEAST SOUTH DAKOTA

CITY           SKY/WX    TMP DP  RH WIND       PRES   REMARKS
SIOUX FALLS    PTCLDY    71  69  93 NW7       29.83R
HURON          CLEAR     67  66  97 SW8       29.85S
CHAMBERLAIN    CLEAR     67  67 100 CALM      29.87S
MITCHELL       CLEAR     67  66  97 W5        29.86R
YANKTON        CLEAR     71  69  93 SW5       29.84R
$$

ABBREVIATIONS USED IN REMARKS
   TC - TEMPERATURE IN CELSIUS
  WCI - WIND CHILL INDEX
   HX - HEAT INDEX
  VSB - VISIBILITY




USA.gov is the U.S. government's official web portal to all federal, state and local government web resources and services.